Location: Wyoming Infrared Observatory
(41.0971°N, 105.9765°W)
Time: 00:37:39
(UTC-06:00)

Amateur Radio Satellites - All Passes

Search period start: 29 July 2014 00:07
Search period end: 30 July 2014 00:07
Location: Wyoming Infrared Observatory, 41.0971°N, 105.9765°W

Satellite Date Start Highest point End Downlink Frequencies (MHz)
Time Altitude Azimuth
UOSAT-12 29 Jul 00:17:03 00:21:34 46° 243° (WSW) 00:26:01 437.025 FM, 437.400 FM
Sapphire 29 Jul 00:25:32 00:30:11 31° 109° (ESE) 00:34:53 437.095 MHz 1200 baud AX-25 AFSK
RS-15 29 Jul 00:57:52 01:06:45 29° 256° (WSW) 01:15:56 29.354 - 29.394 USB, Beacon 29.352 USB
PCSat 29 Jul 00:58:07 01:03:26 64° 115° (ESE) 01:08:49 145.825 MHz
Oscar 16 29 Jul 01:22:10 01:24:36 13° 90° (E) 01:27:01 437.025 USB, Beacon 2401.1428
Oscar 10/S400 29 Jul 01:36:45 02:14:17 64° 187° (S) 11:13:35 145.825 - 145.975 CW/USB, Beacon 145.810 USB
ISS 29 Jul 01:39:50 01:42:31 22° 340° (NNW) 01:45:13 145.800 FM
AO-27 29 Jul 02:01:57 02:04:37 14° 90° (E) 02:07:16 436.795 MHz FM
Uribyol 2 29 Jul 02:02:04 02:04:53 15° 91° (E) 02:07:42 436.500 FM
Sapphire 29 Jul 02:08:27 02:13:28 39° 307° (NW) 02:18:33 437.095 MHz 1200 baud AX-25 AFSK
Oscar 19 29 Jul 02:30:54 02:36:02 60° 101° (E) 02:41:08 437.125 CW, 437.150 USB
PCSat 29 Jul 02:43:12 02:47:19 22° 314° (NW) 02:51:28 145.825 MHz
AO-Echo 29 Jul 02:47:42 02:52:28 40° 98° (E) 02:57:04 ?
Oscar 16 29 Jul 02:59:18 03:04:27 72° 286° (WNW) 03:09:36 437.025 USB, Beacon 2401.1428
OPAL 29 Jul 03:04:32 03:08:12 21° 62° (ENE) 03:11:53 ?
ISS 29 Jul 03:18:23 03:20:11 14° 1° (N) 03:21:59 145.800 FM
JAS-1B 29 Jul 03:18:41 03:27:48 53° 97° (E) 03:35:33 435.800 - 435.900 CW/SSB
ITAMSAT 1 29 Jul 03:20:10 03:25:23 78° 103° (ESE) 03:30:32 435.822 SSB
TMSAT-1 29 Jul 03:37:52 03:42:42 35° 97° (E) 03:47:29 436.925 FM
AO-27 29 Jul 03:39:27 03:44:38 69° 287° (WNW) 03:49:45 436.795 MHz FM
Uribyol 2 29 Jul 03:39:42 03:44:49 66° 287° (WNW) 03:49:55 436.500 FM
Gurwin Techsat 1B 29 Jul 04:01:58 04:07:19 81° 103° (ESE) 04:12:37 435.225 FM
Oscar 19 29 Jul 04:11:29 04:14:53 18° 298° (WNW) 04:18:17 437.125 CW, 437.150 USB
AO-Echo 29 Jul 04:26:59 04:30:59 24° 295° (WNW) 04:34:52 ?
AO-7 29 Jul 04:39:51 04:47:14 34° 97° (E) 04:54:31 29.400 - 29.500 MHz
OPAL 29 Jul 04:42:01 04:46:46 46° 258° (WSW) 04:51:32 ?
Uosat F 29 Jul 04:44:47 04:49:17 32° 97° (E) 04:53:43 435.120 FM
ISS 29 Jul 04:55:04 04:57:49 23° 21° (NNE) 05:00:35 145.800 FM
ITAMSAT 1 29 Jul 05:01:36 05:04:12 14° 300° (WNW) 05:06:46 435.822 SSB
JAS-1B 29 Jul 05:09:26 05:17:55 39° 299° (WNW) 05:25:23 435.800 - 435.900 CW/SSB
TMSAT-1 29 Jul 05:17:58 05:22:30 30° 293° (WNW) 05:27:01 436.925 FM
KITSAT 1 29 Jul 05:20:00 05:26:16 25° 104° (ESE) 05:32:31 435.175 FM
PANSAT 29 Jul 05:26:33 05:26:59 10° 169° (S) 05:27:25 not established
STRAND 1 29 Jul 05:29:21 05:31:39 13° 59° (ENE) 05:33:57 ?
Gurwin Techsat 1B 29 Jul 05:43:54 05:46:35 14° 300° (WNW) 05:49:14 435.225 FM
Uosat F 29 Jul 06:23:40 06:27:58 29° 293° (WNW) 06:32:15 435.120 FM
ISS 29 Jul 06:31:27 06:34:48 67° 219° (SW) 06:38:08 145.800 FM
AO-7 29 Jul 06:32:14 06:40:16 55° 295° (WNW) 06:48:15 29.400 - 29.500 MHz
MaSat-1 29 Jul 06:34:39 06:39:47 46° 58° (ENE) 06:44:38 437.345 MHz
JAS-2 29 Jul 06:48:30 06:53:56 37° 95° (E) 06:58:52 435.800 - 435.900 CW/SSB, 435.910 FM
Hamsat 29 Jul 07:03:07 07:07:26 74° 101° (ESE) 07:11:45 145.90 MHz
PANSAT 29 Jul 07:04:42 07:06:23 12° 182° (S) 07:08:04 not established
STRAND 1 29 Jul 07:04:59 07:10:08 83° 256° (WSW) 07:15:18 ?
KITSAT 1 29 Jul 07:12:50 07:20:55 72° 303° (WNW) 07:29:02 435.175 FM
SO-67 29 Jul 07:23:32 07:25:41 16° 93° (E) 07:27:51 435.3500 MHz FM
Saudisat 1A 29 Jul 07:42:34 07:46:52 55° 118° (ESE) 07:51:12 436.775 MHz
PCSat 29 Jul 08:05:59 08:06:42 10° 34° (NE) 08:07:26 145.825 MHz
MaSat-1 29 Jul 08:12:38 08:16:48 24° 257° (WSW) 08:20:46 437.345 MHz
AO-7 29 Jul 08:28:05 08:31:12 13° 317° (NW) 08:34:20 29.400 - 29.500 MHz
JAS-2 29 Jul 08:33:48 08:38:53 30° 296° (WNW) 08:43:33 435.800 - 435.900 CW/SSB, 435.910 FM
Hamsat 29 Jul 08:41:41 08:42:48 11° 298° (WNW) 08:43:54 145.90 MHz
SO-67 29 Jul 08:55:47 08:58:49 28° 288° (WNW) 09:01:49 435.3500 MHz FM
HO-68 29 Jul 08:58:19 09:03:26 21° 92° (E) 09:08:30 435.675 MHz FM
KITSAT 1 29 Jul 09:12:02 09:17:52 21° 327° (NNW) 09:23:43 435.175 FM
Sapphire 29 Jul 09:13:10 09:17:45 27° 49° (NE) 09:22:18 437.095 MHz 1200 baud AX-25 AFSK
UKube-1 29 Jul 09:20:43 09:23:01 14° 92° (E) 09:25:18 145.840 MHz, 145.915 MHz
Saudisat 1A 29 Jul 09:23:32 09:26:47 20° 317° (NW) 09:30:03 436.775 MHz
PCSat 29 Jul 09:46:11 09:51:28 50° 56° (NE) 09:56:43 145.825 MHz
Oscar 11 29 Jul 10:04:33 10:08:00 23° 94° (E) 10:11:26 145.825 FM, Beacon 2401.500 USB
FUNcube-1 29 Jul 10:27:46 10:30:02 14° 92° (E) 10:32:18 145.950 - 145.970 MHz USB
HO-68 29 Jul 10:44:37 10:51:44 72° 289° (WNW) 10:58:49 435.675 MHz FM
UKube-1 29 Jul 10:55:17 10:59:31 51° 288° (WNW) 11:03:43 145.840 MHz, 145.915 MHz
Sapphire 29 Jul 10:56:12 11:01:23 48° 247° (WSW) 11:06:33 437.095 MHz 1200 baud AX-25 AFSK
KITSAT 1 29 Jul 11:15:49 11:17:12 10° 357° (N) 11:18:35 435.175 FM
PCSat 29 Jul 11:30:21 11:34:31 23° 253° (WSW) 11:38:41 145.825 MHz
Oscar 11 29 Jul 11:40:22 11:44:12 31° 290° (WNW) 11:48:02 145.825 FM, Beacon 2401.500 USB
FUNcube-1 29 Jul 12:02:41 12:06:41 46° 287° (WNW) 12:10:43 145.950 - 145.970 MHz USB
Oscar 19 29 Jul 12:12:59 12:14:20 11° 58° (ENE) 12:15:41 437.125 CW, 437.150 USB
JAS-1B 29 Jul 12:18:04 12:21:17 12° 42° (NE) 12:24:33 435.800 - 435.900 CW/SSB
SO-50 29 Jul 12:29:57 12:34:14 48° 117° (ESE) 12:38:36 436.795 FM
HO-68 29 Jul 12:34:41 12:38:13 15° 309° (NW) 12:41:45 435.675 MHz FM
Oscar 16 29 Jul 12:38:43 12:42:26 21° 64° (ENE) 12:46:09 437.025 USB, Beacon 2401.1428
ITAMSAT 1 29 Jul 13:01:27 13:04:27 16° 61° (ENE) 13:07:27 435.822 SSB
RS-15 29 Jul 13:07:44 13:18:15 50° 111° (ESE) 13:28:31 29.354 - 29.394 USB, Beacon 29.352 USB
KITSAT 1 29 Jul 13:11:40 13:16:49 18° 28° (NNE) 13:21:56 435.175 FM
Uribyol 2 29 Jul 13:19:30 13:23:34 24° 65° (ENE) 13:27:38 436.500 FM
AO-27 29 Jul 13:19:34 13:23:35 23° 64° (ENE) 13:27:37 436.795 MHz FM
Gurwin Techsat 1B 29 Jul 13:45:41 13:48:59 17° 61° (ENE) 13:52:16 435.225 FM
Oscar 19 29 Jul 13:47:44 13:52:50 84° 75° (ENE) 13:57:59 437.125 CW, 437.150 USB
AO-7 29 Jul 13:54:11 13:55:39 11° 41° (NE) 13:57:08 29.400 - 29.500 MHz
AO-Echo 29 Jul 13:59:54 14:05:03 53° 72° (ENE) 14:10:14 ?
JAS-1B 29 Jul 14:00:44 14:09:12 47° 64° (ENE) 14:18:25 435.800 - 435.900 CW/SSB
SO-50 29 Jul 14:11:32 14:15:03 22° 316° (NW) 14:18:37 436.795 FM
Oscar 16 29 Jul 14:16:28 14:21:24 50° 260° (W) 14:26:24 437.025 USB, Beacon 2401.1428
UOSAT-12 29 Jul 14:27:46 14:32:14 55° 118° (ESE) 14:36:49 437.025 FM, 437.400 FM
ITAMSAT 1 29 Jul 14:38:09 14:43:21 71° 257° (WSW) 14:48:34 435.822 SSB
AO-27 29 Jul 14:57:48 15:02:48 46° 261° (W) 15:07:49 436.795 MHz FM
Uribyol 2 29 Jul 14:57:49 15:02:45 44° 261° (W) 15:07:43 436.500 FM
TMSAT-1 29 Jul 14:58:27 15:03:36 54° 72° (ENE) 15:08:46 436.925 FM
KITSAT 1 29 Jul 15:06:15 15:14:12 57° 53° (NE) 15:22:05 435.175 FM
RS-15 29 Jul 15:19:52 15:30:33 51° 314° (NW) 15:41:09 29.354 - 29.394 USB, Beacon 29.352 USB
Gurwin Techsat 1B 29 Jul 15:23:06 15:28:22 67° 258° (WSW) 15:33:41 435.225 FM
Oscar 19 29 Jul 15:31:38 15:32:49 11° 272° (W) 15:34:00 437.125 CW, 437.150 USB
AO-7 29 Jul 15:38:31 15:46:21 47° 63° (ENE) 15:54:12 29.400 - 29.500 MHz
AO-Echo 29 Jul 15:40:20 15:44:06 20° 268° (W) 15:47:53 ?
JAS-1B 29 Jul 15:51:04 15:59:31 48° 264° (W) 16:08:56 435.800 - 435.900 CW/SSB
Uosat F 29 Jul 15:57:51 16:02:38 45° 70° (ENE) 16:07:26 435.120 FM
UOSAT-12 29 Jul 16:09:10 16:12:44 21° 317° (NW) 16:16:20 437.025 FM, 437.400 FM
Saudisat 1A 29 Jul 16:09:26 16:13:40 43° 52° (NE) 16:17:51 436.775 MHz
TMSAT-1 29 Jul 16:40:10 16:43:50 19° 268° (W) 16:47:31 436.925 FM
OPAL 29 Jul 16:51:35 16:56:27 44° 101° (ESE) 17:01:20 ?
JAS-2 29 Jul 16:59:57 17:05:37 23° 61° (ENE) 17:10:59 435.800 - 435.900 CW/SSB, 435.910 FM
KITSAT 1 29 Jul 17:02:13 17:09:12 34° 253° (WSW) 17:16:10 435.175 FM
AO-7 29 Jul 17:31:27 17:39:10 41° 261° (W) 17:46:57 29.400 - 29.500 MHz
Uosat F 29 Jul 17:37:50 17:41:36 21° 266° (W) 17:45:24 435.120 FM
RS-15 29 Jul 17:38:24 17:46:22 22° 345° (NNW) 17:54:22 29.354 - 29.394 USB, Beacon 29.352 USB
Saudisat 1A 29 Jul 17:49:44 17:52:57 20° 249° (WSW) 17:56:10 436.775 MHz
Hamsat 29 Jul 17:56:24 18:00:26 50° 73° (ENE) 18:04:30 145.90 MHz
OPAL 29 Jul 18:31:05 18:35:03 24° 297° (WNW) 18:39:02 ?
JAS-2 29 Jul 18:42:08 18:49:58 79° 257° (WSW) 18:57:18 435.800 - 435.900 CW/SSB, 435.910 FM
STRAND 1 29 Jul 19:16:05 19:20:41 33° 97° (E) 19:25:14 ?
SO-67 29 Jul 19:28:12 19:31:39 88° 84° (E) 19:35:09 435.3500 MHz FM
HO-68 29 Jul 19:28:29 19:32:50 18° 54° (NE) 19:37:11 435.675 MHz FM
Hamsat 29 Jul 19:34:42 19:36:42 13° 269° (W) 19:38:44 145.90 MHz
RS-15 29 Jul 19:55:37 20:04:06 24° 22° (NNE) 20:12:43 29.354 - 29.394 USB, Beacon 29.352 USB
UKube-1 29 Jul 20:16:53 20:19:04 14° 62° (ENE) 20:21:14 145.840 MHz, 145.915 MHz
MaSat-1 29 Jul 20:27:19 20:30:00 17° 100° (E) 20:32:56 437.345 MHz
JAS-2 29 Jul 20:31:57 20:35:47 14° 273° (W) 20:39:33 435.800 - 435.900 CW/SSB, 435.910 FM
STRAND 1 29 Jul 20:55:24 20:59:46 30° 293° (WNW) 21:04:08 ?
Oscar 11 29 Jul 21:00:11 21:03:10 19° 66° (ENE) 21:06:11 145.825 FM, Beacon 2401.500 USB
SO-50 29 Jul 21:01:26 21:06:00 45° 52° (NE) 21:10:37 436.795 FM
HO-68 29 Jul 21:12:20 21:19:31 85° 73° (ENE) 21:26:43 435.675 MHz FM
FUNcube-1 29 Jul 21:25:14 21:27:08 13° 64° (ENE) 21:29:01 145.950 - 145.970 MHz USB
UKube-1 29 Jul 21:50:27 21:54:46 60° 259° (WSW) 21:59:06 145.840 MHz, 145.915 MHz
MaSat-1 29 Jul 22:02:48 22:06:47 45° 302° (WNW) 22:11:23 437.345 MHz
RS-15 29 Jul 22:08:21 22:19:17 62° 51° (NE) 22:30:34 29.354 - 29.394 USB, Beacon 29.352 USB
Oscar 11 29 Jul 22:35:03 22:39:04 39° 262° (W) 22:43:08 145.825 FM, Beacon 2401.500 USB
SO-50 29 Jul 22:42:36 22:46:18 23° 248° (WSW) 22:50:02 436.795 FM
UOSAT-12 29 Jul 22:57:28 23:02:03 47° 52° (NE) 23:06:34 437.025 FM, 437.400 FM
FUNcube-1 29 Jul 22:58:48 23:03:04 59° 259° (W) 23:07:16 145.950 - 145.970 MHz USB
HO-68 29 Jul 23:03:40 23:08:01 17° 270° (W) 23:12:22 435.675 MHz FM
ISS 29 Jul 23:13:36 23:16:45 41° 138° (SE) 23:19:55 145.800 FM
Sapphire 29 Jul 23:55:50 23:59:55 22° 107° (ESE) 00:04:01 437.095 MHz 1200 baud AX-25 AFSK
